Location: Amsterdam
(30.7274°N, 84.4357°W)
Time: 20:18:02
(UTC+00:00)

Explorer 11/Cluster Stage 4 - Pass Details

Date: 25 February 2026
Orbit: 463 x 1176 km, 28.8° (Epoch: 5 March)

Event Time Altitude Azimuth Distance (km) Brightness Sun altitude
Rises 13:25:04 0° 224° (SW) 3,962 9.9 15.1°
Reaches altitude 10° 13:28:25 10° 213° (SSW) 2,932 9.4 15.7°
Maximum altitude 13:34:23 28° 158° (SSE) 1,757 9.2 16.9°
Drops below altitude 10° 13:39:38 10° 101° (E) 2,549 11.3 18.0°
Sets 13:42:20 0° 89° (E) 3,366 11.0 18.5°
